COSMOS 2520

Last updated on Mon Jul 07 2025 00:02:46 GMT+0000 (Coordinated Universal Time)

1 42907U 17046A 25187.50171705 .00000153 00000+0 00000+0 0 9996 2 42907 0.0344 99.0070 0000404 61.9584 349.3870 1.00273877 28932
UTC large
Height (km)
Speed (km/s)
/
Latitude / Longitude
Inclination (degrees)
Orbital Period (minutes)
Azimuth
Elevation
Range (km)
Doppler Factor

Next 0 passes for location: London (51.5072 / 0.1276)

Sorry there are no passes over London.